Lapeer, MI

10:29 AM EDT on June 24, 2017 (GMT -0400)
Lapeer

Weather History for KD95 - October, 2012

Change the Weather History Date:

Monday, October 8, 2012

  Actual Average (KFNT) Record (KFNT)
Temperature  
Mean Temperature 40 °F -  
Max Temperature 55 °F 62 °F 88 °F (2007)
Min Temperature 26 °F 43 °F 25 °F (2001)
Degree Days  
Heating Degree Days 24    
Moisture  
Dew Point 30 °F    
Average Humidity 69    
Maximum Humidity 100    
Minimum Humidity 32    
Precipitation  
Precipitation 0.00 in - - ()
Sea Level Pressure  
Sea Level Pressure 30.14 in    
Wind  
Wind Speed 4 mph ()    
Max Wind Speed 14 mph    
Max Gust Speed 20 mph    
Visibility 10.0 miles    
Events      
Averages and records for this station are not official NWS values.
T = Trace of Precipitation, MM = Missing Value Source: Averaged Metar Reports

Daily Weather History Graph

Daily Weather History Graph

Search for Another Location

Airport or City:

Trip Planner

Search our weather history database for the weather conditions in past years. The results will help you decide how hot, cold, wet, or windy it might be!

Date:

Astronomy

Oct. 08, 2012 Rise Set
Actual Time 7:38 AM EDT 7:01 PM EDT
Civil Twilight 7:10 AM EDT 7:29 PM EDT
Nautical Twilight 6:37 AM EDT 8:02 PM EDT
Astronomical Twilight 6:04 AM EDT 8:35 PM EDT
Moon 12:07 AM EDT (10/8) 2:59 PM EDT (10/8)
Length of Visible Light 12h 19m
Length of Day
11h 22m
Waning Gibbous, 46% of the Moon is Illuminated
Oct 8
Waning Gibbous
Oct 15
New
Oct 21
First Quarter
Oct 29
Full
Nov 6
Last Quarter

Hourly Weather History & Observations

Time (EDT) Temp. Windchill Dew Point Humidity Pressure Visibility Wind Dir Wind Speed Gust Speed Precip Events Conditions
12:13 AM 41.0 °F 39.0 °F 40.8 °F 99% 30.13 in 10.0 mi WSW 3.5 mph - N/A   Overcast
12:33 AM 41.0 °F 38.0 °F 40.6 °F 99% 30.13 in 10.0 mi WSW 4.6 mph - N/A   Overcast
12:53 AM 40.5 °F 37.3 °F 39.0 °F 95% 30.13 in 10.0 mi WSW 4.6 mph - N/A   Overcast
1:13 AM 39.7 °F 37.6 °F 38.8 °F 97% 30.13 in 10.0 mi WSW 3.5 mph - N/A   Overcast
1:33 AM 38.1 °F - 38.1 °F 100% 30.13 in 10.0 mi Calm Calm - N/A   Scattered Clouds
1:54 AM 37.0 °F - 37.0 °F 100% 30.13 in 10.0 mi Calm Calm - N/A   Clear
2:13 AM 35.6 °F - 35.6 °F 100% 30.13 in 10.0 mi Calm Calm - N/A   Clear
2:33 AM 33.8 °F - 33.8 °F 100% 30.14 in 10.0 mi Calm Calm - N/A   Clear
2:54 AM 33.3 °F - 33.3 °F 100% 30.14 in 10.0 mi Calm Calm - N/A   Mostly Cloudy
3:13 AM 33.8 °F - 33.8 °F 100% 30.14 in 10.0 mi Calm Calm - N/A   Scattered Clouds
3:33 AM 34.7 °F 31.8 °F 34.7 °F 100% 30.14 in 10.0 mi SW 3.5 mph - N/A   Scattered Clouds
3:54 AM 33.3 °F - 33.3 °F 100% 30.14 in 10.0 mi Calm Calm - N/A   Scattered Clouds
4:13 AM 32.9 °F 29.8 °F 32.9 °F 100% 30.14 in 10.0 mi SSW 3.5 mph - N/A   Clear
4:33 AM 32.5 °F - 32.5 °F 100% 30.14 in 10.0 mi Calm Calm - N/A   Clear
4:54 AM 31.5 °F - 31.5 °F 100% 30.15 in 10.0 mi Calm Calm - N/A   Clear
5:13 AM 30.0 °F - 30.0 °F 100% 30.15 in 10.0 mi Calm Calm - N/A   Clear
5:33 AM 28.6 °F - 28.6 °F 100% 30.15 in 10.0 mi Calm Calm - N/A   Clear
5:54 AM 28.6 °F - 28.6 °F 100% 30.15 in 10.0 mi Calm Calm - N/A   Clear
6:13 AM 28.8 °F - 28.8 °F 100% 30.15 in 10.0 mi Calm Calm - N/A   Clear
6:33 AM 28.2 °F - 28.2 °F 100% 30.16 in 10.0 mi Calm Calm - N/A   Clear
6:54 AM 27.9 °F - 27.9 °F 100% 30.16 in 10.0 mi Calm Calm - N/A   Clear
7:13 AM 27.3 °F - 27.3 °F 100% 30.17 in 10.0 mi Calm Calm - N/A   Clear
7:33 AM 26.8 °F - 26.8 °F 100% 30.17 in 10.0 mi Calm Calm - N/A   Clear
7:54 AM 27.0 °F - 27.0 °F 100% 30.18 in 10.0 mi Calm Calm - N/A   Clear
8:13 AM 27.5 °F - 27.5 °F 100% 30.18 in 10.0 mi Calm Calm - N/A   Clear
8:33 AM 30.7 °F - 30.7 °F 100% 30.18 in 10.0 mi Calm Calm - N/A   Clear
8:54 AM 33.3 °F - 33.3 °F 100% 30.19 in 10.0 mi Calm Calm - N/A   Clear
9:13 AM 36.3 °F - 36.0 °F 99% 30.19 in 10.0 mi Calm Calm - N/A   Clear
9:33 AM 41.4 °F 37.6 °F 35.2 °F 79% 30.19 in 10.0 mi South 5.8 mph - N/A   Clear
9:54 AM 44.4 °F 39.5 °F 31.6 °F 61% 30.19 in 10.0 mi SW 9.2 mph - N/A   Clear
10:13 AM 46.0 °F 41.9 °F 30.4 °F 54% 30.18 in 10.0 mi SSW 8.1 mph - N/A   Clear
10:33 AM 47.1 °F - 28.8 °F 49% 30.18 in 10.0 mi SW 12.7 mph 16.1 mph N/A   Clear
10:54 AM 48.6 °F - 27.5 °F 44% 30.18 in 10.0 mi SW 12.7 mph 16.1 mph N/A   Clear
11:13 AM 49.1 °F - 27.3 °F 43% 30.18 in 10.0 mi SW 12.7 mph 19.6 mph N/A   Clear
11:33 AM 50.9 °F - 27.9 °F 41% 30.17 in 10.0 mi WSW 11.5 mph - N/A   Clear
11:53 AM 51.4 °F - 28.0 °F 40% 30.17 in 10.0 mi SW 9.2 mph 17.3 mph N/A   Clear
12:13 PM 52.0 °F - 27.5 °F 39% 30.17 in 10.0 mi SW 11.5 mph 19.6 mph N/A   Clear
12:33 PM 52.0 °F - 26.8 °F 38% 30.17 in 10.0 mi SW 11.5 mph 17.3 mph N/A   Clear
12:53 PM 52.9 °F - 26.4 °F 36% 30.17 in 10.0 mi SW 13.8 mph 17.3 mph N/A   Clear
1:13 PM 53.4 °F - 26.1 °F 35% 30.16 in 10.0 mi WSW 6.9 mph 18.4 mph N/A   Clear
1:53 PM 52.5 °F - 27.1 °F 38% 30.16 in 10.0 mi SW 10.4 mph - N/A   Scattered Clouds
2:13 PM 54.0 °F - 26.6 °F 35% 30.15 in 10.0 mi WSW 9.2 mph 18.4 mph N/A   Mostly Cloudy
2:34 PM 54.9 °F - 27.7 °F 35% 30.13 in 10.0 mi South 11.5 mph 16.1 mph N/A   Scattered Clouds
2:53 PM 54.3 °F - 26.6 °F 34% 30.12 in 10.0 mi WSW 9.2 mph 18.4 mph N/A   Clear
3:13 PM 54.5 °F - 26.2 °F 34% 30.12 in 10.0 mi South 8.1 mph 16.1 mph N/A   Clear
3:34 PM 54.5 °F - 25.7 °F 33% 30.12 in 10.0 mi SSW 9.2 mph - N/A   Clear
3:53 PM 54.9 °F - 27.0 °F 34% 30.11 in 10.0 mi SSW 9.2 mph - N/A   Clear
4:13 PM 54.7 °F - 25.5 °F 32% 30.10 in 10.0 mi South 11.5 mph - N/A   Clear
4:34 PM 55.2 °F - 26.4 °F 33% 30.10 in 10.0 mi SSW 10.4 mph - N/A   Clear
4:53 PM 54.9 °F - 26.6 °F 34% 30.10 in 10.0 mi South 11.5 mph 17.3 mph N/A   Clear
5:13 PM 54.5 °F - 27.0 °F 35% 30.10 in 10.0 mi South 9.2 mph - N/A   Clear
5:34 PM 53.6 °F - 27.0 °F 36% 30.10 in 10.0 mi South 8.1 mph - N/A   Clear
5:53 PM 52.9 °F - 26.2 °F 36% 30.10 in 10.0 mi South 12.7 mph 18.4 mph N/A   Clear
6:13 PM 52.2 °F - 26.4 °F 37% 30.10 in 10.0 mi South 9.2 mph - N/A   Clear
6:34 PM 50.7 °F - 26.8 °F 40% 30.10 in 10.0 mi South 8.1 mph - N/A   Clear
6:53 PM 48.2 °F - 27.7 °F 45% 30.08 in 10.0 mi South 6.9 mph - N/A   Clear
7:13 PM 46.6 °F - 27.5 °F 47% 30.09 in 10.0 mi South 3.5 mph - N/A   Clear
7:34 PM 45.7 °F 44.4 °F 28.0 °F 50% 30.10 in 10.0 mi SSE 3.5 mph - N/A   Clear
7:53 PM 45.1 °F 43.7 °F 28.0 °F 51% 30.10 in 10.0 mi SSE 3.5 mph - N/A   Clear
8:13 PM 43.2 °F 41.5 °F 28.4 °F 56% 30.10 in 10.0 mi SSE 3.5 mph - N/A   Clear
8:33 PM 43.0 °F 41.3 °F 28.4 °F 56% 30.10 in 10.0 mi SSE 3.5 mph - N/A   Clear
8:53 PM 40.1 °F 38.0 °F 29.1 °F 65% 30.11 in 10.0 mi SSE 3.5 mph - N/A   Clear
9:13 PM 38.7 °F - 29.5 °F 70% 30.11 in 10.0 mi Calm Calm - N/A   Clear
9:33 PM 35.6 °F 32.8 °F 30.2 °F 81% 30.12 in 10.0 mi SE 3.5 mph - N/A   Clear
9:53 PM 37.2 °F 34.7 °F 29.8 °F 75% 30.12 in 10.0 mi SSE 3.5 mph - N/A   Clear
10:14 PM 34.0 °F 31.0 °F 28.2 °F 79% 30.12 in 10.0 mi South 3.5 mph - N/A   Clear
10:33 PM 37.4 °F 34.9 °F 29.8 °F 74% 30.12 in 10.0 mi SSE 3.5 mph - N/A   Clear
10:53 PM 37.6 °F 35.1 °F 29.8 °F 74% 30.12 in 10.0 mi SSE 3.5 mph - N/A   Clear
11:14 PM 36.9 °F 33.1 °F 29.7 °F 75% 30.12 in 10.0 mi South 4.6 mph - N/A   Clear
11:53 PM 36.1 °F 33.5 °F 29.8 °F 78% 30.11 in 10.0 mi South 3.5 mph - N/A   Clear